This demonstration page uses our WeatherBlox Daily Observations layout. Learn more.

38.88101, -77.10428

Hourly Observations for March 6, 2015

Temp ( °F °C ) Dew Point ( °F °C ) Humidity (%) Winds ( mph kmh ) Pressure ( in mb ) Visibility ( mi km ) Precip ( " mm )
12:52 am 00:52 Clear 21 -6.1 7 -13.9 54 54 NNW 13 20 30.46 1032 10 16.0934 0 0
1:52 am 01:52 Clear 20 -6.7 5 -15 52 52 NNW 13 20 30.49 1033 10 16.0934 0 0
2:52 am 02:52 Clear 19 -7.2 4 -15.6 51 51 NNW 14 22 30.49 1033 10 16.0934 0 0
3:52 am 03:52 Clear 18 -7.8 2 -16.7 49 49 NNW 15 24 30.5 1033 10 16.0934 0 0
4:52 am 04:52 Clear 17 -8.3 2 -16.7 51 51 NNW 12 19 30.54 1034 10 16.0934 0 0
5:52 am 05:52 Clear 16 -8.9 1 -17.2 51 51 NNW 13 20 30.57 1035 10 16.0934 0 0
6:52 am 06:52 Sunny 16 -8.9 1 -17.2 51 51 NNW 9 15 30.58 1036 10 16.0934 0 0
7:52 am 07:52 Sunny 17 -8.3 2 -16.7 51 51 N 12 19 30.61 1037 10 16.0934 0 0
8:52 am 08:52 Sunny 19 -7.2 2 -16.7 47 47 N 12 19 30.63 1037 10 16.0934 0 0
9:52 am 09:52 Sunny 21 -6.1 2 -16.7 43 43 NNE 7 11 30.62 1037 10 16.0934 0 0
10:52 am 10:52 Sunny 23 -5 2 -16.7 40 40 NNE 5 7 30.6 1036 10 16.0934 0 0
11:52 am 11:52 Sunny 25 -3.9 5 -15 42 42 Calm 30.59 1036 10 16.0934 0 0
12:52 pm 12:52 Sunny 27 -2.8 7 -13.9 43 43 VRB 3 6 30.56 1035 10 16.0934 0 0
1:52 pm 13:52 Sunny 28 -2.2 6 -14.4 39 39 WNW 5 7 30.53 1034 10 16.0934 0 0
2:52 pm 14:52 Mostly Sunny 28 -2 7 -14 40 40 N 3 6 30.5 1033 10 16.0934 0 0
3:52 pm 15:52 Mostly Sunny 28 -2.2 7 -13.9 41 41 ESE 5 7 30.48 1032 10 16.0934 0 0
4:52 pm 16:52 Mostly Sunny 28 -2.2 7 -13.9 41 41 SSW 7 11 30.47 1032 10 16.0934 0 0
5:52 pm 17:52 Partly Cloudy 28 -2.2 8 -13.3 43 43 S 5 7 30.47 1032 10 16.0934 0 0
6:52 pm 18:52 Mostly Cloudy 27 -2.8 9 -12.8 46 46 SSW 5 7 30.45 1031 10 16.0934 0 0
7:52 pm 19:52 Partly Cloudy 26 -3.3 9 -12.8 48 48 S 7 11 30.45 1031 10 16.0934 0 0
8:52 pm 20:52 Mostly Clear 25 -3.9 10 -12.2 53 53 SW 5 7 30.46 1031 10 16.0934 0 0
9:52 pm 21:52 Clear 24 -4.4 10 -12.2 55 55 S 3 6 30.44 1031 10 16.0934 0 0
10:52 pm 22:52 Clear 24 -4.4 12 -11.1 60 60 SSW 3 6 30.44 1031 10 16.0934 0 0
11:52 pm 23:52 Clear 23 -5 13 -10.6 65 65 SW 5 7 30.42 1030 10 16.0934 0 0

Powered by AerisWeather